Weather History for KPMP - March, 2013

Change the Weather History Date:

Sunday, March 24, 2013

  Actual Average (KFLL) Record (KFLL)
Temperature  
Mean Temperature 83 °F 74 °F  
Max Temperature 91 °F 81 °F 94 °F (1948)
Min Temperature 75 °F 67 °F 45 °F (1968)
Degree Days  
Heating Degree Days 0 0  
Month to date heating degree days 7  
Since 1 July heating degree days 109  
Cooling Degree Days 18 9  
Month to date cooling degree days 191  
Year to date cooling degree days 547  
Growing Degree Days 33 (Base 50)    
Moisture  
Dew Point 72 °F    
Average Humidity 80    
Maximum Humidity 100    
Minimum Humidity 46    
Precipitation  
Precipitation 0.00 in 0.10 in 1.80 in (1937)
Month to date precipitation 2.52  
Year to date precipitation 9.11  
Snow  
Snow 0.00 in - - ()
Month to date snowfall  
Since 1 July snowfall  
Snow Depth -    
Sea Level Pressure  
Sea Level Pressure 29.80 in    
Wind  
Wind Speed 11 mph (SSW)    
Max Wind Speed 28 mph    
Max Gust Speed 34 mph    
Visibility 8 miles    
Events Rain    
T = Trace of Precipitation, MM = Missing Value Source: NWS Daily Summary

Daily Weather History Graph

Daily Weather History Graph

Search for Another Location

Airport or City:

Trip Planner

Search our weather history database for the weather conditions in past years. The results will help you decide how hot, cold, wet, or windy it might be!

Date:

Astronomy

Mar. 24, 2013 Rise Set
Actual Time 7:19 AM EDT 7:33 PM EDT
Civil Twilight 6:56 AM EDT 7:56 PM EDT
Nautical Twilight 6:29 AM EDT 8:23 PM EDT
Astronomical Twilight 6:02 AM EDT 8:50 PM EDT
Moon 5:11 PM EDT (3/24) 5:15 AM EDT (3/24)
Length of Visible Light 13h 00m
Length of Day
12h 13m
Waxing Gibbous, 91% of the Moon is Illuminated
Mar 24
Waxing Gibbous
Mar 27
Full
Apr 3
Last Quarter
Apr 10
New
Apr 18
First Quarter

Hourly Weather History & Observations

Time (EDT) Temp. Heat Index Dew Point Humidity Pressure Visibility Wind Dir Wind Speed Gust Speed Precip Events Conditions
12:53 AM 75.9 °F - 73.9 °F 94% 29.90 in 8.0 mi SSE 3.5 mph - N/A   Overcast
1:36 AM 75.2 °F - 75.2 °F 100% 29.89 in 6.0 mi SSE 8.1 mph - N/A   Mostly Cloudy
1:50 AM 75.2 °F - 75.2 °F 100% 29.88 in 6.0 mi South 8.1 mph - N/A   Mostly Cloudy
1:53 AM 75.0 °F - 75.0 °F 100% 29.88 in 6.0 mi South 6.9 mph - N/A   Mostly Cloudy
2:20 AM 75.2 °F - 75.2 °F 100% 29.87 in 6.0 mi South 6.9 mph - N/A   Scattered Clouds
2:45 AM 75.2 °F - 75.2 °F 100% 29.86 in 5.0 mi SSE 6.9 mph - N/A   Mostly Cloudy
2:53 AM 75.0 °F - 75.0 °F 100% 29.86 in 5.0 mi SSE 9.2 mph - N/A   Mostly Cloudy
3:53 AM 75.0 °F - 75.0 °F 100% 29.84 in 5.0 mi SSE 6.9 mph - N/A   Overcast
4:53 AM 75.0 °F - 75.0 °F 100% 29.83 in 7.0 mi South 9.2 mph - N/A   Mostly Cloudy
5:20 AM 75.2 °F - 75.2 °F 100% 29.82 in 6.0 mi South 6.9 mph - N/A   Scattered Clouds
5:53 AM 75.0 °F - 75.0 °F 100% 29.82 in 6.0 mi South 6.9 mph - N/A   Clear
6:53 AM 75.0 °F - 73.9 °F 96% 29.81 in 8.0 mi South 6.9 mph - N/A   Clear
7:53 AM 75.0 °F - 73.9 °F 96% 29.81 in 8.0 mi South 10.4 mph - N/A   Partly Cloudy
8:53 AM 78.1 °F - 73.0 °F 84% 29.79 in 10.0 mi South 11.5 mph 20.7 mph N/A   Scattered Clouds
9:53 AM 80.1 °F 84.2 °F 73.0 °F 79% 29.79 in 10.0 mi South 16.1 mph - N/A   Scattered Clouds
10:53 AM 82.0 °F 86.7 °F 72.0 °F 71% 29.79 in 10.0 mi SSW 20.7 mph 31.1 mph N/A   Scattered Clouds
11:53 AM 84.9 °F 88.8 °F 69.1 °F 59% 29.79 in 10.0 mi SW 23.0 mph 33.4 mph N/A   Scattered Clouds
12:53 PM 88.0 °F 92.1 °F 69.1 °F 53% 29.78 in 10.0 mi SSW 21.9 mph 31.1 mph N/A   Scattered Clouds
1:53 PM 89.1 °F 92.9 °F 68.0 °F 50% 29.77 in 10.0 mi SW 24.2 mph 34.5 mph N/A   Mostly Cloudy
2:53 PM 91.0 °F 95.2 °F 68.0 °F 47% 29.74 in 10.0 mi SW 25.3 mph 33.4 mph N/A   Partly Cloudy
3:53 PM 90.0 °F 92.8 °F 66.9 °F 46% 29.71 in 10.0 mi WSW 25.3 mph 34.5 mph N/A   Partly Cloudy
4:53 PM 87.1 °F 90.6 °F 68.0 °F 53% 29.72 in 10.0 mi West 27.6 mph 34.5 mph N/A   Mostly Cloudy
5:53 PM 84.9 °F 88.2 °F 68.0 °F 57% 29.72 in 10.0 mi WSW 23.0 mph 32.2 mph N/A   Scattered Clouds
6:53 PM 82.9 °F 85.8 °F 68.0 °F 60% 29.72 in 10.0 mi SW 20.7 mph 31.1 mph N/A   Partly Cloudy
7:53 PM 81.0 °F 84.1 °F 69.1 °F 67% 29.75 in 10.0 mi WSW 13.8 mph 29.9 mph N/A   Partly Cloudy
8:53 PM 80.1 °F 82.9 °F 69.1 °F 69% 29.78 in 10.0 mi WSW 11.5 mph - N/A   Mostly Cloudy
9:53 PM 80.1 °F 82.9 °F 69.1 °F 69% 29.79 in 10.0 mi WSW 10.4 mph - N/A   Overcast
10:53 PM 79.0 °F - 72.0 °F 79% 29.80 in 10.0 mi WSW 11.5 mph - 0.00 in Rain Light Rain
11:53 PM 78.1 °F - 72.0 °F 81% 29.78 in 10.0 mi WSW 9.2 mph - 0.00 in   Overcast